Regional Weather Roundup
Issued by NWS Green Bay, WI

Home | Current Version | Previous Version | Graphics & Text | Print | Product List | Glossary Off
Versions: 1 2 3 4 5 6 7 8 9 10 11 12 13 14 15 16 17 18 19 20 21 22 23 24 25 26 27 28 29 30 31 32 33 34 35 36 37 38 39 40 41 42 43 44 45 46 47 48 49 50

000
ASUS43 KGRB 010410
RWRGRB

NORTH-CENTRAL AND NORTHEAST WISCONSIN REGIONAL WEATHER ROUNDUP
NATIONAL WEATHER SERVICE GREEN BAY WI
1100 PM CDT SUN AUG 31 2014

WIZ005-009-010>012-018-019-010500-
NORTH CENTRAL WISCONSIN

CITY           SKY/WX    TMP DP  RH WIND       PRES   REMARKS
IRONWOOD       NOT AVBL
MANITOWISH WTR CLOUDY    69  66  90 S12G22    29.75R
ARBOR VITAE    CLOUDY    72  67  85 S12       29.76S
EAGLE RIVER    CLOUDY    66  66 100 S5        29.79R
LAND O LAKES   CLOUDY    68  65  90 S9        29.79R
RHINELANDER    CLOUDY    69  65  86 S10       29.79R
PHILLIPS       CLOUDY    72  66  82 S9G16     29.73R
ANTIGO         CLOUDY    66  66  98 S12G17    29.81S FOG
TOMAHAWK       CLOUDY    68  65  89 CALM      29.78R
MERRILL        CLOUDY    71  67  88 S5        29.78R
$$

WIZ013-073-010500-
NORTHEAST WISCONSIN

CITY           SKY/WX    TMP DP  RH WIND       PRES   REMARKS
IRON MOUNTAIN  FOG       63  63 100 SE6       29.81R VSB 1
MARINETTE      MOCLDY    66  63  88 S6        29.81R
OCONTO         MOCLDY    66  66 100 S3        29.80S
$$

WIZ017-030-035>037-045-010500-
CENTRAL WISCONSIN

CITY           SKY/WX    TMP DP  RH WIND       PRES   REMARKS
MEDFORD        CLOUDY    69  64  82 S5        29.78R
WAUSAU         CLOUDY    72  67  84 SE7       29.78R
MOSINEE        LGT RAIN  70  68  94 S3        29.80R
MARSHFIELD     CLOUDY    72  68  87 SE7       29.76S
WISC RAPIDS    CLOUDY    75  67  76 S9        29.78R
STEVENS POINT  MOCLDY    71  66  83 S8        29.78F
WAUPACA        PTCLDY    72  70  93 SE6       29.79R
SHAWANO        PTCLDY    68  65  91 CALM      29.80R FOG
CLINTONVILLE   PTCLDY    64  64 100 SE3       29.80R FOG
$$

WIZ038-039-048-051-010500-
FOX VALLEY

CITY           SKY/WX    TMP DP  RH WIND       PRES   REMARKS
NWS GREEN BAY  MOCLDY    67  65  93 S5        29.81R
APPLETON       MOCLDY    70  68  94 SE9       29.80R
OSHKOSH        CLEAR     69  67  93 S10       29.80R
FOND DU LAC    PTCLDY    70  66  87 S8        29.81S
$$

WIZ022-050-052-010500-
EAST CENTRAL WISCONSIN

CITY           SKY/WX    TMP DP  RH WIND       PRES   REMARKS
STURGEON BAY   CLOUDY    66  63  88 S10       29.82S
MANITOWOC      FOG       67  66  97 S7        29.83R VSB 1/4
SHEBOYGAN      MOCLDY    68  67  96 S7        29.83R FOG
$$

LMZ563-521-522-541>543-010500-
LAKESHORE

STATION/POSITION TIME  TEMP    WIND        PRES    VSBY  WAVE
                       AIR SEA DIR/SP/G                  HT/PER
                 (UTC) (F)     (DEG/KT/KT) (MB)    (MI)  (FT/S)
SHEBOYGAN LKSHOR 0400   67 49  180/ 12/ 12 1009.9F
KEWAUNEE LKSHORE 0400   62     170/  9/ 10 1009.4R
NORTHPORT PIER   0400   66     150/ 10/ 13 1009.8S
N MID LAKE BUOY  0400   66 65  150/  8/ 10 1009.8R         1
S GREEN BAY BUOY 0400   69     VRB 12/ 16  1010.3R
CHAMBERS ISLAND  0400   65     160/  3/  5 1009.8S
MENOMINEE LKSHOR 0400   67     170/  7/ 12 1010.1R
$$


USA.gov is the U.S. government's official web portal to all federal, state and local government web resources and services.